Time,TemperatureF,DewpointF,PressureIn,WindDirection,WindDirectionDegrees,WindSpeedMPH,WindSpeedGustMPH,Humidity,HourlyPrecipIn,Conditions,Clouds,dailyrainin,SoftwareType,DateUTC
2013-08-16 00:02:00,65.4,61.4,30.01,SE,135,0.0,0.0,87,0.00,,,0.00,Wunderground v.1.15,2013-08-16 05:02:00,
2013-08-16 00:08:00,65.3,61.0,30.01,SE,135,0.0,0.0,86,0.00,,,0.00,Wunderground v.1.15,2013-08-16 05:08:00,
2013-08-16 00:14:00,65.2,60.6,30.01,SE,135,0.0,0.0,85,0.00,,,0.00,Wunderground v.1.15,2013-08-16 05:14:00,
2013-08-16 00:19:00,65.2,60.2,30.01,SE,135,0.0,0.0,84,0.00,,,0.00,Wunderground v.1.15,2013-08-16 05:19:00,
2013-08-16 00:25:00,65.2,60.6,30.01,SE,135,0.0,0.0,85,0.00,,,0.00,Wunderground v.1.15,2013-08-16 05:25:00,
2013-08-16 00:31:00,65.2,61.2,30.00,SE,135,0.0,0.0,87,0.00,,,0.00,Wunderground v.1.15,2013-08-16 05:31:00,
2013-08-16 00:37:00,65.3,61.3,30.00,SE,135,0.0,0.0,87,0.00,,,0.00,Wunderground v.1.15,2013-08-16 05:37:00,
2013-08-16 00:43:00,65.3,61.0,30.00,SE,135,0.0,0.0,86,0.00,,,0.00,Wunderground v.1.15,2013-08-16 05:43:00,
2013-08-16 00:49:00,65.3,60.7,30.00,SE,135,0.0,0.0,85,0.00,,,0.00,Wunderground v.1.15,2013-08-16 05:49:00,
2013-08-16 00:55:00,65.3,60.7,30.00,SE,135,0.0,0.0,85,0.00,,,0.00,Wunderground v.1.15,2013-08-16 05:55:00,
2013-08-16 01:01:00,65.4,60.8,29.99,SE,135,0.0,0.0,85,0.00,,,0.00,Wunderground v.1.15,2013-08-16 06:01:00,
2013-08-16 01:07:00,65.4,61.1,29.99,SE,135,0.0,0.0,86,0.00,,,0.00,Wunderground v.1.15,2013-08-16 06:07:00,
2013-08-16 01:13:00,65.4,60.8,29.99,SE,135,0.0,0.0,85,0.00,,,0.00,Wunderground v.1.15,2013-08-16 06:13:00,
2013-08-16 01:18:00,65.4,60.8,29.99,SE,135,0.0,0.0,85,0.00,,,0.00,Wunderground v.1.15,2013-08-16 06:18:00,
2013-08-16 01:24:00,65.4,60.4,29.99,SE,135,0.0,0.0,84,0.00,,,0.00,Wunderground v.1.15,2013-08-16 06:24:00,
2013-08-16 01:30:00,65.4,60.8,29.98,SE,135,0.0,0.0,85,0.00,,,0.00,Wunderground v.1.15,2013-08-16 06:30:00,
2013-08-16 01:35:00,65.3,60.7,29.98,SE,135,0.0,0.0,85,0.00,,,0.00,Wunderground v.1.15,2013-08-16 06:35:00,
2013-08-16 01:41:00,65.3,60.7,29.98,SE,135,0.0,0.0,85,0.00,,,0.00,Wunderground v.1.15,2013-08-16 06:41:00,
2013-08-16 01:47:00,65.2,60.2,29.98,SE,135,0.0,0.0,84,0.00,,,0.00,Wunderground v.1.15,2013-08-16 06:47:00,
2013-08-16 01:53:00,65.2,60.2,29.97,SE,135,0.0,0.0,84,0.00,,,0.00,Wunderground v.1.15,2013-08-16 06:53:00,
2013-08-16 01:58:00,65.1,60.1,29.97,SE,135,0.0,0.0,84,0.00,,,0.00,Wunderground v.1.15,2013-08-16 06:58:00,
2013-08-16 02:03:00,65.1,60.1,29.97,SE,135,0.0,1.0,84,0.00,,,0.00,Wunderground v.1.15,2013-08-16 07:03:00,
2013-08-16 02:08:00,65.0,60.0,29.97,SE,135,0.0,1.0,84,0.00,,,0.00,Wunderground v.1.15,2013-08-16 07:08:00,
2013-08-16 02:13:00,65.0,60.0,29.97,SE,135,0.0,0.0,84,0.00,,,0.00,Wunderground v.1.15,2013-08-16 07:13:00,
2013-08-16 02:18:00,64.9,60.3,29.97,SE,135,0.0,1.0,85,0.00,,,0.00,Wunderground v.1.15,2013-08-16 07:18:00,
2013-08-16 02:23:00,64.8,59.9,29.97,SE,135,0.0,0.0,84,0.00,,,0.00,Wunderground v.1.15,2013-08-16 07:23:00,
2013-08-16 02:28:00,64.7,60.1,29.97,SE,135,0.0,0.0,85,0.00,,,0.00,Wunderground v.1.15,2013-08-16 07:28:00,
2013-08-16 02:34:00,64.7,60.4,29.97,SE,135,0.0,0.0,86,0.00,,,0.00,Wunderground v.1.15,2013-08-16 07:34:00,
2013-08-16 02:39:00,64.7,60.4,29.97,SE,135,0.0,0.0,86,0.00,,,0.00,Wunderground v.1.15,2013-08-16 07:39:00,
2013-08-16 02:45:00,64.6,60.3,29.97,SE,135,0.0,0.0,86,0.00,,,0.00,Wunderground v.1.15,2013-08-16 07:45:00,
2013-08-16 02:50:00,64.6,60.3,29.97,SE,135,0.0,0.0,86,0.00,,,0.00,Wunderground v.1.15,2013-08-16 07:50:00,
2013-08-16 02:55:00,64.5,60.2,29.97,SE,135,0.0,0.0,86,0.00,,,0.00,Wunderground v.1.15,2013-08-16 07:55:00,
2013-08-16 03:00:00,64.4,60.1,29.97,SE,135,0.0,0.0,86,0.00,,,0.00,Wunderground v.1.15,2013-08-16 08:00:00,
2013-08-16 03:05:00,64.4,60.4,29.97,SE,135,0.0,0.0,87,0.00,,,0.00,Wunderground v.1.15,2013-08-16 08:05:00,
2013-08-16 03:10:00,64.4,60.1,29.97,SE,135,0.0,0.0,86,0.00,,,0.00,Wunderground v.1.15,2013-08-16 08:10:00,
2013-08-16 03:15:00,64.3,60.0,29.97,SE,135,0.0,0.0,86,0.00,,,0.00,Wunderground v.1.15,2013-08-16 08:15:00,
2013-08-16 03:21:00,64.2,60.2,29.97,SE,135,0.0,0.0,87,0.00,,,0.00,Wunderground v.1.15,2013-08-16 08:21:00,
2013-08-16 03:26:00,64.1,60.2,29.98,SE,135,0.0,0.0,87,0.00,,,0.00,Wunderground v.1.15,2013-08-16 08:26:00,
2013-08-16 03:31:00,64.0,60.1,29.98,SE,135,0.0,0.0,87,0.00,,,0.00,Wunderground v.1.15,2013-08-16 08:31:00,
2013-08-16 03:36:00,63.9,60.0,29.98,SE,135,0.0,0.0,87,0.00,,,0.00,Wunderground v.1.15,2013-08-16 08:36:00,
2013-08-16 03:41:00,63.8,59.9,29.98,SE,135,0.0,0.0,87,0.00,,,0.00,Wunderground v.1.15,2013-08-16 08:41:00,
2013-08-16 03:46:00,63.8,59.5,29.98,SE,135,0.0,0.0,86,0.00,,,0.00,Wunderground v.1.15,2013-08-16 08:46:00,
2013-08-16 03:51:00,63.8,59.9,29.98,SE,135,0.0,0.0,87,0.00,,,0.00,Wunderground v.1.15,2013-08-16 08:51:00,
2013-08-16 03:56:00,63.8,59.5,29.98,SE,135,0.0,0.0,86,0.00,,,0.00,Wunderground v.1.15,2013-08-16 08:56:00,
2013-08-16 04:02:00,63.8,59.9,29.98,SE,135,0.0,0.0,87,0.00,,,0.00,Wunderground v.1.15,2013-08-16 09:02:00,
2013-08-16 04:07:00,63.8,59.9,29.98,SE,135,0.0,0.0,87,0.00,,,0.00,Wunderground v.1.15,2013-08-16 09:07:00,
2013-08-16 04:12:00,63.8,59.9,29.98,SE,135,0.0,0.0,87,0.00,,,0.00,Wunderground v.1.15,2013-08-16 09:12:00,
2013-08-16 04:17:00,63.8,59.9,29.98,SE,135,0.0,0.0,87,0.00,,,0.00,Wunderground v.1.15,2013-08-16 09:17:00,
2013-08-16 04:22:00,63.8,60.2,29.98,SE,135,0.0,0.0,88,0.00,,,0.00,Wunderground v.1.15,2013-08-16 09:22:00,
2013-08-16 04:27:00,63.9,60.3,29.97,SE,135,0.0,0.0,88,0.00,,,0.00,Wunderground v.1.15,2013-08-16 09:27:00,
2013-08-16 04:32:00,63.9,60.3,29.97,SE,135,0.0,0.0,88,0.00,,,0.00,Wunderground v.1.15,2013-08-16 09:32:00,
2013-08-16 04:37:00,63.8,60.2,29.97,SE,135,0.0,0.0,88,0.00,,,0.00,Wunderground v.1.15,2013-08-16 09:37:00,
2013-08-16 04:43:00,63.7,60.1,29.97,SE,135,0.0,0.0,88,0.00,,,0.00,Wunderground v.1.15,2013-08-16 09:43:00,
2013-08-16 04:48:00,63.6,60.3,29.97,SE,135,0.0,1.0,89,0.00,,,0.00,Wunderground v.1.15,2013-08-16 09:48:00,
2013-08-16 04:53:00,63.6,60.0,29.97,SE,135,0.0,0.0,88,0.00,,,0.00,Wunderground v.1.15,2013-08-16 09:53:00,
2013-08-16 04:58:00,63.6,60.0,29.97,SE,135,0.0,0.0,88,0.00,,,0.00,Wunderground v.1.15,2013-08-16 09:58:00,
2013-08-16 05:03:00,63.6,60.0,29.97,SE,135,0.0,0.0,88,0.00,,,0.00,Wunderground v.1.15,2013-08-16 10:03:00,
2013-08-16 05:09:00,63.6,60.0,29.98,SE,135,0.0,0.0,88,0.00,,,0.00,Wunderground v.1.15,2013-08-16 10:09:00,
2013-08-16 05:14:00,63.6,60.0,29.98,SE,135,0.0,0.0,88,0.00,,,0.00,Wunderground v.1.15,2013-08-16 10:14:00,
2013-08-16 05:19:00,63.6,60.0,29.98,SE,135,0.0,0.0,88,0.00,,,0.00,Wunderground v.1.15,2013-08-16 10:19:00,
2013-08-16 05:26:00,63.6,60.0,29.98,SE,135,0.0,0.0,88,0.00,,,0.00,Wunderground v.1.15,2013-08-16 10:26:00,
2013-08-16 05:31:00,63.6,60.3,29.98,SE,135,0.0,0.0,89,0.00,,,0.00,Wunderground v.1.15,2013-08-16 10:31:00,
2013-08-16 05:36:00,63.5,60.2,29.98,SE,135,0.0,0.0,89,0.00,,,0.00,Wunderground v.1.15,2013-08-16 10:36:00,
2013-08-16 05:41:00,63.5,59.9,29.99,SE,135,0.0,0.0,88,0.00,,,0.00,Wunderground v.1.15,2013-08-16 10:41:00,
2013-08-16 05:46:00,63.4,59.8,29.99,SE,135,0.0,0.0,88,0.00,,,0.00,Wunderground v.1.15,2013-08-16 10:46:00,
2013-08-16 05:51:00,63.4,59.8,29.99,SE,135,0.0,0.0,88,0.00,,,0.00,Wunderground v.1.15,2013-08-16 10:51:00,
2013-08-16 05:56:00,63.4,60.1,29.99,SE,135,0.0,0.0,89,0.00,,,0.00,Wunderground v.1.15,2013-08-16 10:56:00,
2013-08-16 06:01:00,63.4,60.1,30.00,SE,135,0.0,0.0,89,0.00,,,0.00,Wunderground v.1.15,2013-08-16 11:01:00,
2013-08-16 06:07:00,63.3,60.0,30.00,SE,135,0.0,1.0,89,0.00,,,0.00,Wunderground v.1.15,2013-08-16 11:07:00,
2013-08-16 06:12:00,63.2,59.9,30.00,SE,135,0.0,0.0,89,0.00,,,0.00,Wunderground v.1.15,2013-08-16 11:12:00,
2013-08-16 06:17:00,63.2,60.2,30.00,SE,135,0.0,1.0,90,0.00,,,0.00,Wunderground v.1.15,2013-08-16 11:17:00,
2013-08-16 06:22:00,63.2,60.2,30.00,SE,135,0.0,0.0,90,0.00,,,0.00,Wunderground v.1.15,2013-08-16 11:22:00,
2013-08-16 06:27:00,63.1,59.8,30.00,SE,135,0.0,0.0,89,0.00,,,0.00,Wunderground v.1.15,2013-08-16 11:27:00,
2013-08-16 06:32:00,63.1,59.8,30.00,SE,135,0.0,0.0,89,0.00,,,0.00,Wunderground v.1.15,2013-08-16 11:32:00,
2013-08-16 06:37:00,63.0,60.0,30.00,SE,135,0.0,0.0,90,0.00,,,0.00,Wunderground v.1.15,2013-08-16 11:37:00,
2013-08-16 06:42:00,63.0,60.0,30.00,SE,135,0.0,0.0,90,0.00,,,0.00,Wunderground v.1.15,2013-08-16 11:42:00,
2013-08-16 06:47:00,63.0,60.0,30.00,SE,135,0.0,0.0,90,0.00,,,0.00,Wunderground v.1.15,2013-08-16 11:47:00,
2013-08-16 06:52:00,62.9,59.9,30.00,SE,135,0.0,0.0,90,0.00,,,0.00,Wunderground v.1.15,2013-08-16 11:52:00,
2013-08-16 06:57:00,62.9,59.9,30.00,SE,135,0.0,0.0,90,0.00,,,0.00,Wunderground v.1.15,2013-08-16 11:57:00,
2013-08-16 07:03:00,62.8,60.1,30.00,SE,135,0.0,0.0,91,0.00,,,0.00,Wunderground v.1.15,2013-08-16 12:03:00,
2013-08-16 07:08:00,62.9,60.2,30.00,SE,135,0.0,0.0,91,0.00,,,0.00,Wunderground v.1.15,2013-08-16 12:08:00,
2013-08-16 07:13:00,62.9,60.2,30.00,SE,135,0.0,0.0,91,0.00,,,0.00,Wunderground v.1.15,2013-08-16 12:13:00,
2013-08-16 07:18:00,63.0,60.3,30.00,SE,135,0.0,0.0,91,0.00,,,0.00,Wunderground v.1.15,2013-08-16 12:18:00,
2013-08-16 07:23:00,63.1,60.4,30.00,SE,135,0.0,0.0,91,0.00,,,0.00,Wunderground v.1.15,2013-08-16 12:23:00,
2013-08-16 07:28:00,63.3,60.6,30.00,SE,135,0.0,0.0,91,0.00,,,0.00,Wunderground v.1.15,2013-08-16 12:28:00,
2013-08-16 07:33:00,63.4,60.7,30.00,SE,135,0.0,1.0,91,0.00,,,0.00,Wunderground v.1.15,2013-08-16 12:33:00,
2013-08-16 07:38:00,63.7,61.3,30.00,SE,135,0.0,1.0,92,0.00,,,0.00,Wunderground v.1.15,2013-08-16 12:38:00,
2013-08-16 07:43:00,63.9,61.5,30.00,SE,135,0.0,0.0,92,0.00,,,0.00,Wunderground v.1.15,2013-08-16 12:43:00,
2013-08-16 07:48:00,64.1,61.7,30.00,SE,135,0.0,1.0,92,0.00,,,0.00,Wunderground v.1.15,2013-08-16 12:48:00,
2013-08-16 07:53:00,64.4,62.0,30.00,SE,135,0.0,1.0,92,0.00,,,0.00,Wunderground v.1.15,2013-08-16 12:53:00,
2013-08-16 07:58:00,64.6,61.9,30.00,SE,135,0.0,1.0,91,0.00,,,0.00,Wunderground v.1.15,2013-08-16 12:58:00,
2013-08-16 08:04:00,64.7,62.0,30.00,SE,135,0.0,0.0,91,0.00,,,0.00,Wunderground v.1.15,2013-08-16 13:04:00,
2013-08-16 08:09:00,64.9,62.2,30.00,SE,135,0.0,0.0,91,0.00,,,0.00,Wunderground v.1.15,2013-08-16 13:09:00,
2013-08-16 08:15:00,65.1,62.4,30.01,SE,135,0.0,0.0,91,0.00,,,0.00,Wunderground v.1.15,2013-08-16 13:15:00,
2013-08-16 08:20:00,65.3,62.6,30.00,SE,135,0.0,0.0,91,0.00,,,0.00,Wunderground v.1.15,2013-08-16 13:20:00,
2013-08-16 08:25:00,65.5,62.8,30.01,SE,135,0.0,0.0,91,0.00,,,0.00,Wunderground v.1.15,2013-08-16 13:25:00,
2013-08-16 08:31:00,65.7,63.0,30.01,SE,135,0.0,0.0,91,0.00,,,0.00,Wunderground v.1.15,2013-08-16 13:31:00,
2013-08-16 08:36:00,65.9,63.2,30.01,SE,135,0.0,0.0,91,0.00,,,0.00,Wunderground v.1.15,2013-08-16 13:36:00,
2013-08-16 08:41:00,66.1,63.4,30.01,SE,135,0.0,0.0,91,0.00,,,0.00,Wunderground v.1.15,2013-08-16 13:41:00,
2013-08-16 08:46:00,66.3,63.6,30.01,SE,134,0.0,1.0,91,0.00,,,0.00,Wunderground v.1.15,2013-08-16 13:46:00,
2013-08-16 08:51:00,66.5,63.8,30.01,SE,134,0.0,0.0,91,0.00,,,0.00,Wunderground v.1.15,2013-08-16 13:51:00,
2013-08-16 08:56:00,66.7,64.0,30.02,SE,134,0.0,0.0,91,0.00,,,0.00,Wunderground v.1.15,2013-08-16 13:56:00,
2013-08-16 09:01:00,67.0,64.3,30.02,SE,134,0.0,0.0,91,0.00,,,0.00,Wunderground v.1.15,2013-08-16 14:01:00,
2013-08-16 09:06:00,67.3,64.6,30.02,SE,134,0.0,0.0,91,0.00,,,0.00,Wunderground v.1.15,2013-08-16 14:06:00,
2013-08-16 09:11:00,67.5,64.8,30.02,SE,135,0.0,0.0,91,0.00,,,0.00,Wunderground v.1.15,2013-08-16 14:11:00,
2013-08-16 09:16:00,67.8,65.1,30.02,SE,135,0.0,0.0,91,0.00,,,0.00,Wunderground v.1.15,2013-08-16 14:16:00,
2013-08-16 09:22:00,68.0,65.0,30.02,SE,134,0.0,0.0,90,0.00,,,0.00,Wunderground v.1.15,2013-08-16 14:22:00,
2013-08-16 09:27:00,68.3,65.3,30.02,SE,135,0.0,0.0,90,0.00,,,0.00,Wunderground v.1.15,2013-08-16 14:27:00,
2013-08-16 09:32:00,68.6,65.5,30.02,SE,135,0.0,1.0,90,0.00,,,0.00,Wunderground v.1.15,2013-08-16 14:32:00,
2013-08-16 09:37:00,68.9,65.5,30.01,NE,38,0.0,1.0,89,0.00,,,0.00,Wunderground v.1.15,2013-08-16 14:37:00,
2013-08-16 09:42:00,69.2,66.1,30.01,NE,38,0.0,0.0,90,0.00,,,0.00,Wunderground v.1.15,2013-08-16 14:42:00,
2013-08-16 09:47:00,69.5,66.4,30.01,NE,38,0.0,0.0,90,0.00,,,0.00,Wunderground v.1.15,2013-08-16 14:47:00,
2013-08-16 09:52:00,69.8,66.7,30.01,NE,38,0.0,0.0,90,0.00,,,0.00,Wunderground v.1.15,2013-08-16 14:52:00,
2013-08-16 09:57:00,70.1,66.7,30.01,NE,38,0.0,1.0,89,0.00,,,0.00,Wunderground v.1.15,2013-08-16 14:57:00,
2013-08-16 10:03:00,70.4,67.3,30.01,NE,38,0.0,0.0,90,0.00,,,0.00,Wunderground v.1.15,2013-08-16 15:03:00,
2013-08-16 10:08:00,70.7,67.6,30.01,NE,38,0.0,0.0,90,0.00,,,0.00,Wunderground v.1.15,2013-08-16 15:08:00,
2013-08-16 10:13:00,70.9,67.2,30.01,North,360,1.0,1.0,88,0.00,,,0.00,Wunderground v.1.15,2013-08-16 15:13:00,
2013-08-16 10:18:00,71.2,67.8,30.01,North,360,0.0,1.0,89,0.00,,,0.00,Wunderground v.1.15,2013-08-16 15:18:00,
2013-08-16 10:23:00,71.5,67.8,30.01,West,272,0.0,2.0,88,0.00,,,0.00,Wunderground v.1.15,2013-08-16 15:23:00,
2013-08-16 10:28:00,71.9,68.2,30.01,West,272,0.0,2.0,88,0.00,,,0.00,Wunderground v.1.15,2013-08-16 15:28:00,
2013-08-16 10:33:00,72.2,67.8,30.01,West,272,0.0,1.0,86,0.00,,,0.00,Wunderground v.1.15,2013-08-16 15:33:00,
2013-08-16 10:38:00,72.5,68.1,30.02,NNW,346,0.0,3.0,86,0.00,,,0.00,Wunderground v.1.15,2013-08-16 15:38:00,
2013-08-16 10:43:00,72.8,68.4,30.02,WNW,294,0.0,2.0,86,0.00,,,0.00,Wunderground v.1.15,2013-08-16 15:43:00,
2013-08-16 10:48:00,73.1,68.7,30.01,WNW,294,0.0,2.0,86,0.00,,,0.00,Wunderground v.1.15,2013-08-16 15:48:00,
2013-08-16 10:54:00,73.5,69.1,30.01,NW,321,0.0,1.0,86,0.00,,,0.00,Wunderground v.1.15,2013-08-16 15:54:00,
2013-08-16 10:59:00,73.7,68.9,30.01,NW,321,0.0,1.0,85,0.00,,,0.00,Wunderground v.1.15,2013-08-16 15:59:00,
2013-08-16 11:04:00,73.7,67.9,30.01,North,360,0.0,1.0,82,0.00,,,0.00,Wunderground v.1.15,2013-08-16 16:04:00,
2013-08-16 11:09:00,74.0,68.9,30.01,North,355,0.0,1.0,84,0.00,,,0.00,Wunderground v.1.15,2013-08-16 16:09:00,
2013-08-16 11:14:00,74.3,68.8,30.01,North,355,0.0,0.0,83,0.00,,,0.00,Wunderground v.1.15,2013-08-16 16:14:00,
2013-08-16 11:19:00,74.5,69.0,30.01,North,355,0.0,0.0,83,0.00,,,0.00,Wunderground v.1.15,2013-08-16 16:19:00,
2013-08-16 11:24:00,74.9,69.4,30.01,North,355,0.0,0.0,83,0.00,,,0.00,Wunderground v.1.15,2013-08-16 16:24:00,
2013-08-16 11:29:00,75.3,69.4,30.01,NW,318,0.0,1.0,82,0.00,,,0.00,Wunderground v.1.15,2013-08-16 16:29:00,
2013-08-16 11:34:00,75.8,69.9,30.01,NW,314,0.0,1.0,82,0.00,,,0.00,Wunderground v.1.15,2013-08-16 16:34:00,
2013-08-16 11:40:00,76.2,69.2,30.02,NW,315,0.0,1.0,79,0.00,,,0.00,Wunderground v.1.15,2013-08-16 16:40:00,
2013-08-16 11:45:00,76.8,69.0,30.02,NNW,344,0.0,1.0,77,0.00,,,0.00,Wunderground v.1.15,2013-08-16 16:45:00,
2013-08-16 11:50:00,77.2,69.0,30.02,WNW,298,0.0,0.0,76,0.00,,,0.00,Wunderground v.1.15,2013-08-16 16:50:00,
2013-08-16 11:55:00,77.2,68.3,30.02,WNW,298,0.0,1.0,74,0.00,,,0.00,Wunderground v.1.15,2013-08-16 16:55:00,
2013-08-16 12:00:00,77.4,70.4,30.02,WNW,298,0.0,0.0,79,0.00,,,0.00,Wunderground v.1.15,2013-08-16 17:00:00,
2013-08-16 12:05:00,77.5,70.1,30.02,WNW,298,0.0,0.0,78,0.00,,,0.00,Wunderground v.1.15,2013-08-16 17:05:00,
2013-08-16 12:10:00,77.3,69.5,30.02,WNW,298,0.0,0.0,77,0.00,,,0.00,Wunderground v.1.15,2013-08-16 17:10:00,
2013-08-16 12:15:00,77.1,69.7,30.02,WNW,298,0.0,0.0,78,0.00,,,0.00,Wunderground v.1.15,2013-08-16 17:15:00,
2013-08-16 12:20:00,77.2,70.2,30.01,WNW,298,0.0,0.0,79,0.00,,,0.00,Wunderground v.1.15,2013-08-16 17:20:00,
2013-08-16 12:26:00,77.5,70.5,30.01,WNW,298,0.0,0.0,79,0.00,,,0.00,Wunderground v.1.15,2013-08-16 17:26:00,
2013-08-16 12:31:00,77.6,69.8,30.02,WNW,298,0.0,0.0,77,0.00,,,0.00,Wunderground v.1.15,2013-08-16 17:31:00,
2013-08-16 12:36:00,77.3,70.3,30.02,WNW,298,0.0,0.0,79,0.00,,,0.00,Wunderground v.1.15,2013-08-16 17:36:00,
2013-08-16 12:41:00,76.9,69.9,30.02,WNW,298,0.0,0.0,79,0.00,,,0.00,Wunderground v.1.15,2013-08-16 17:41:00,
2013-08-16 12:46:00,76.6,70.0,30.02,WNW,298,0.0,0.0,80,0.00,,,0.00,Wunderground v.1.15,2013-08-16 17:46:00,
2013-08-16 12:51:00,76.4,69.8,30.02,WNW,298,0.0,0.0,80,0.00,,,0.00,Wunderground v.1.15,2013-08-16 17:51:00,
2013-08-16 12:56:00,76.2,69.6,30.01,WNW,298,0.0,0.0,80,0.00,,,0.00,Wunderground v.1.15,2013-08-16 17:56:00,
2013-08-16 13:02:00,76.2,70.3,30.01,WNW,298,0.0,0.0,82,0.00,,,0.00,Wunderground v.1.15,2013-08-16 18:02:00,
2013-08-16 13:07:00,76.0,70.1,30.01,WNW,298,0.0,0.0,82,0.00,,,0.00,Wunderground v.1.15,2013-08-16 18:07:00,
2013-08-16 13:12:00,75.7,70.2,30.01,WNW,298,0.0,0.0,83,0.00,,,0.00,Wunderground v.1.15,2013-08-16 18:12:00,
2013-08-16 13:17:00,75.5,70.0,30.01,WNW,298,0.0,0.0,83,0.00,,,0.00,Wunderground v.1.15,2013-08-16 18:17:00,
2013-08-16 13:22:00,75.1,69.9,30.01,WNW,298,0.0,0.0,84,0.00,,,0.00,Wunderground v.1.15,2013-08-16 18:22:00,
2013-08-16 13:27:00,74.8,70.3,30.01,WNW,298,0.0,0.0,86,0.00,,,0.00,Wunderground v.1.15,2013-08-16 18:27:00,
2013-08-16 13:33:00,74.6,70.5,30.00,WNW,298,0.0,0.0,87,0.00,,,0.00,Wunderground v.1.15,2013-08-16 18:33:00,
2013-08-16 13:38:00,74.7,68.8,30.00,WNW,298,0.0,0.0,82,0.00,,,0.00,Wunderground v.1.15,2013-08-16 18:38:00,
2013-08-16 13:43:00,75.3,70.8,30.00,WNW,298,0.0,0.0,86,0.00,,,0.00,Wunderground v.1.15,2013-08-16 18:43:00,
2013-08-16 13:48:00,76.0,70.5,30.00,WNW,298,0.0,1.0,83,0.00,,,0.00,Wunderground v.1.15,2013-08-16 18:48:00,
2013-08-16 13:53:00,77.2,71.6,30.00,WNW,298,0.0,0.0,83,0.00,,,0.00,Wunderground v.1.15,2013-08-16 18:53:00,
2013-08-16 13:59:00,77.8,71.5,30.00,WNW,298,0.0,1.0,81,0.00,,,0.00,Wunderground v.1.15,2013-08-16 18:59:00,
2013-08-16 14:04:00,78.3,70.5,30.00,NE,50,1.0,2.0,77,0.00,,,0.00,Wunderground v.1.15,2013-08-16 19:04:00,
2013-08-16 14:09:00,77.9,70.5,30.00,NE,50,1.0,2.0,78,0.00,,,0.00,Wunderground v.1.15,2013-08-16 19:09:00,
2013-08-16 14:14:00,77.1,69.7,30.00,NE,50,0.0,2.0,78,0.00,,,0.00,Wunderground v.1.15,2013-08-16 19:14:00,
2013-08-16 14:19:00,76.5,69.9,30.00,NE,50,0.0,2.0,80,0.00,,,0.00,Wunderground v.1.15,2013-08-16 19:19:00,
2013-08-16 14:24:00,76.3,70.0,30.00,NE,50,0.0,0.0,81,0.00,,,0.00,Wunderground v.1.15,2013-08-16 19:24:00,
2013-08-16 14:29:00,76.0,70.1,30.00,NE,50,0.0,0.0,82,0.00,,,0.00,Wunderground v.1.15,2013-08-16 19:29:00,
2013-08-16 14:34:00,75.8,70.3,29.99,NE,50,0.0,1.0,83,0.00,,,0.00,Wunderground v.1.15,2013-08-16 19:34:00,
2013-08-16 14:39:00,75.6,70.4,29.99,NE,50,0.0,1.0,84,0.00,,,0.00,Wunderground v.1.15,2013-08-16 19:39:00,
2013-08-16 14:44:00,75.7,70.5,29.99,NE,50,0.0,0.0,84,0.00,,,0.00,Wunderground v.1.15,2013-08-16 19:44:00,
2013-08-16 14:49:00,76.6,71.4,29.99,NE,50,0.0,0.0,84,0.00,,,0.00,Wunderground v.1.15,2013-08-16 19:49:00,
2013-08-16 14:55:00,77.1,71.2,29.98,NE,50,0.0,0.0,82,0.00,,,0.00,Wunderground v.1.15,2013-08-16 19:55:00,
2013-08-16 15:00:00,78.2,71.9,29.98,NE,41,0.0,0.0,81,0.00,,,0.00,Wunderground v.1.15,2013-08-16 20:00:00,
2013-08-16 15:06:00,78.3,72.3,29.98,NE,37,0.0,1.0,82,0.00,,,0.00,Wunderground v.1.15,2013-08-16 20:06:00,
2013-08-16 15:11:00,78.2,70.8,29.98,NE,37,0.0,1.0,78,0.00,,,0.00,Wunderground v.1.15,2013-08-16 20:11:00,
2013-08-16 15:16:00,77.8,71.1,29.98,NE,37,0.0,1.0,80,0.00,,,0.00,Wunderground v.1.15,2013-08-16 20:16:00,
2013-08-16 15:21:00,77.5,71.2,29.97,NE,37,0.0,0.0,81,0.00,,,0.00,Wunderground v.1.15,2013-08-16 20:21:00,
2013-08-16 15:26:00,77.9,71.2,29.97,NE,37,0.0,0.0,80,0.00,,,0.00,Wunderground v.1.15,2013-08-16 20:26:00,
2013-08-16 15:31:00,78.2,71.5,29.97,NE,37,0.0,0.0,80,0.00,,,0.00,Wunderground v.1.15,2013-08-16 20:31:00,
2013-08-16 15:36:00,77.5,70.5,29.98,NE,37,0.0,0.0,79,0.00,,,0.00,Wunderground v.1.15,2013-08-16 20:36:00,
2013-08-16 15:41:00,77.1,70.1,29.98,NE,38,0.0,1.0,79,0.00,,,0.00,Wunderground v.1.15,2013-08-16 20:41:00,
2013-08-16 15:46:00,76.9,71.0,29.97,NE,37,0.0,1.0,82,0.00,,,0.00,Wunderground v.1.15,2013-08-16 20:46:00,
2013-08-16 15:51:00,78.0,71.0,29.97,NE,37,0.0,1.0,79,0.00,,,0.00,Wunderground v.1.15,2013-08-16 20:51:00,
2013-08-16 15:56:00,78.3,71.6,29.97,NE,37,0.0,1.0,80,0.00,,,0.00,Wunderground v.1.15,2013-08-16 20:56:00,
2013-08-16 16:01:00,78.2,71.2,29.97,NE,37,0.0,0.0,79,0.00,,,0.00,Wunderground v.1.15,2013-08-16 21:01:00,
2013-08-16 16:06:00,78.1,71.8,29.97,NE,37,0.0,1.0,81,0.00,,,0.00,Wunderground v.1.15,2013-08-16 21:06:00,
2013-08-16 16:11:00,78.5,70.3,29.97,NE,37,0.0,1.0,76,0.00,,,0.00,Wunderground v.1.15,2013-08-16 21:11:00,
2013-08-16 16:16:00,79.0,71.2,29.97,NE,37,0.0,1.0,77,0.00,,,0.00,Wunderground v.1.15,2013-08-16 21:16:00,
2013-08-16 16:22:00,79.3,71.1,29.97,NE,37,0.0,0.0,76,0.00,,,0.00,Wunderground v.1.15,2013-08-16 21:22:00,
2013-08-16 16:27:00,78.7,70.5,29.97,NE,37,0.0,2.0,76,0.00,,,0.00,Wunderground v.1.15,2013-08-16 21:27:00,
2013-08-16 16:32:00,78.4,70.6,29.97,NE,37,0.0,0.0,77,0.00,,,0.00,Wunderground v.1.15,2013-08-16 21:32:00,
2013-08-16 16:37:00,78.5,70.7,29.97,NE,37,0.0,1.0,77,0.00,,,0.00,Wunderground v.1.15,2013-08-16 21:37:00,
2013-08-16 16:42:00,78.5,71.1,29.97,NE,37,0.0,0.0,78,0.00,,,0.00,Wunderground v.1.15,2013-08-16 21:42:00,
2013-08-16 16:48:00,78.5,71.1,29.97,NE,37,0.0,0.0,78,0.00,,,0.00,Wunderground v.1.15,2013-08-16 21:48:00,
2013-08-16 16:52:00,78.4,71.3,29.97,NE,37,0.0,0.0,79,0.00,,,0.00,Wunderground v.1.15,2013-08-16 21:52:00,
2013-08-16 16:58:00,78.3,70.9,29.97,NE,37,0.0,0.0,78,0.00,,,0.00,Wunderground v.1.15,2013-08-16 21:58:00,
2013-08-16 17:03:00,78.0,71.0,29.97,NE,37,0.0,1.0,79,0.00,,,0.00,Wunderground v.1.15,2013-08-16 22:03:00,
2013-08-16 17:08:00,77.6,70.9,29.97,NE,37,0.0,1.0,80,0.00,,,0.00,Wunderground v.1.15,2013-08-16 22:08:00,
2013-08-16 17:14:00,77.4,71.1,29.98,NE,37,0.0,0.0,81,0.00,,,0.00,Wunderground v.1.15,2013-08-16 22:14:00,
2013-08-16 17:19:00,77.2,70.9,29.98,NE,38,0.0,0.0,81,0.00,,,0.00,Wunderground v.1.15,2013-08-16 22:19:00,
2013-08-16 17:24:00,76.9,71.0,29.98,NE,37,0.0,0.0,82,0.00,,,0.00,Wunderground v.1.15,2013-08-16 22:24:00,
2013-08-16 17:29:00,76.8,70.9,29.98,NE,37,0.0,0.0,82,0.00,,,0.00,Wunderground v.1.15,2013-08-16 22:29:00,
2013-08-16 17:34:00,76.7,70.8,29.98,NE,37,0.0,0.0,82,0.00,,,0.00,Wunderground v.1.15,2013-08-16 22:34:00,
2013-08-16 17:39:00,76.7,70.8,29.98,NE,37,0.0,0.0,82,0.00,,,0.00,Wunderground v.1.15,2013-08-16 22:39:00,
2013-08-16 17:44:00,76.6,70.3,29.98,NE,37,0.0,0.0,81,0.00,,,0.00,Wunderground v.1.15,2013-08-16 22:44:00,
2013-08-16 17:50:00,76.6,70.7,29.98,NE,38,0.0,0.0,82,0.00,,,0.00,Wunderground v.1.15,2013-08-16 22:50:00,
2013-08-16 17:55:00,76.5,70.6,29.98,NE,37,0.0,0.0,82,0.00,,,0.00,Wunderground v.1.15,2013-08-16 22:55:00,
2013-08-16 18:00:00,76.4,70.5,29.98,NE,37,0.0,0.0,82,0.00,,,0.00,Wunderground v.1.15,2013-08-16 23:00:00,
2013-08-16 18:05:00,76.3,70.4,29.98,NE,38,0.0,0.0,82,0.00,,,0.00,Wunderground v.1.15,2013-08-16 23:05:00,
2013-08-16 18:10:00,76.2,70.7,29.98,NE,38,0.0,0.0,83,0.00,,,0.00,Wunderground v.1.15,2013-08-16 23:10:00,
2013-08-16 18:15:00,76.1,70.6,29.98,NE,37,0.0,0.0,83,0.00,,,0.00,Wunderground v.1.15,2013-08-16 23:15:00,
2013-08-16 18:20:00,76.0,70.5,29.98,NE,37,0.0,0.0,83,0.00,,,0.00,Wunderground v.1.15,2013-08-16 23:20:00,
2013-08-16 18:25:00,75.9,70.4,29.98,NE,38,0.0,0.0,83,0.00,,,0.00,Wunderground v.1.15,2013-08-16 23:25:00,
2013-08-16 18:31:00,75.7,69.8,29.98,NE,37,0.0,0.0,82,0.00,,,0.00,Wunderground v.1.15,2013-08-16 23:31:00,
2013-08-16 18:36:00,75.5,70.0,29.98,NE,37,0.0,0.0,83,0.00,,,0.00,Wunderground v.1.15,2013-08-16 23:36:00,
2013-08-16 18:41:00,75.4,69.9,29.98,NE,38,0.0,0.0,83,0.00,,,0.00,Wunderground v.1.15,2013-08-16 23:41:00,
2013-08-16 18:46:00,75.2,69.7,29.98,NE,37,0.0,0.0,83,0.00,,,0.00,Wunderground v.1.15,2013-08-16 23:46:00,
2013-08-16 18:51:00,75.1,69.6,29.98,NE,37,0.0,0.0,83,0.00,,,0.00,Wunderground v.1.15,2013-08-16 23:51:00,
2013-08-16 18:56:00,75.0,69.5,29.99,NE,37,0.0,0.0,83,0.00,,,0.00,Wunderground v.1.15,2013-08-16 23:56:00,
2013-08-16 19:01:00,74.9,69.7,29.99,NE,37,0.0,0.0,84,0.00,,,0.00,Wunderground v.1.15,2013-08-17 00:01:00,
2013-08-16 19:06:00,74.7,69.5,29.99,NE,37,0.0,0.0,84,0.00,,,0.00,Wunderground v.1.15,2013-08-17 00:06:00,
2013-08-16 19:11:00,74.6,69.4,29.99,NE,37,0.0,0.0,84,0.00,,,0.00,Wunderground v.1.15,2013-08-17 00:11:00,
2013-08-16 19:16:00,74.5,69.3,29.99,NE,37,0.0,0.0,84,0.00,,,0.00,Wunderground v.1.15,2013-08-17 00:16:00,
2013-08-16 19:22:00,74.4,69.6,29.99,NE,38,0.0,0.0,85,0.00,,,0.00,Wunderground v.1.15,2013-08-17 00:22:00,
2013-08-16 19:27:00,74.3,69.5,29.99,NE,37,0.0,0.0,85,0.00,,,0.00,Wunderground v.1.15,2013-08-17 00:27:00,
2013-08-16 19:32:00,74.2,69.4,30.00,NE,37,0.0,0.0,85,0.00,,,0.00,Wunderground v.1.15,2013-08-17 00:32:00,
2013-08-16 19:37:00,74.0,69.2,30.00,NE,38,0.0,0.0,85,0.00,,,0.00,Wunderground v.1.15,2013-08-17 00:37:00,
2013-08-16 19:42:00,74.0,69.5,30.00,NE,37,0.0,0.0,86,0.00,,,0.00,Wunderground v.1.15,2013-08-17 00:42:00,
2013-08-16 19:47:00,73.9,69.4,30.00,NE,38,0.0,0.0,86,0.00,,,0.00,Wunderground v.1.15,2013-08-17 00:47:00,
2013-08-16 19:52:00,73.8,69.3,30.00,NE,37,0.0,0.0,86,0.00,,,0.00,Wunderground v.1.15,2013-08-17 00:52:00,
2013-08-16 19:57:00,73.7,69.2,30.00,NE,38,0.0,0.0,86,0.00,,,0.00,Wunderground v.1.15,2013-08-17 00:57:00,
2013-08-16 20:02:00,73.6,69.5,30.01,NE,37,0.0,0.0,87,0.00,,,0.00,Wunderground v.1.15,2013-08-17 01:02:00,
2013-08-16 20:07:00,73.5,69.1,30.01,NE,38,0.0,0.0,86,0.00,,,0.00,Wunderground v.1.15,2013-08-17 01:07:00,
2013-08-16 20:12:00,73.4,69.3,30.01,NE,37,0.0,0.0,87,0.00,,,0.00,Wunderground v.1.15,2013-08-17 01:12:00,
2013-08-16 20:17:00,73.3,69.2,30.01,NE,37,0.0,0.0,87,0.00,,,0.00,Wunderground v.1.15,2013-08-17 01:17:00,
2013-08-16 20:23:00,73.3,69.2,30.01,NE,37,0.0,0.0,87,0.00,,,0.00,Wunderground v.1.15,2013-08-17 01:23:00,
2013-08-16 20:28:00,73.2,69.4,30.01,NE,37,0.0,0.0,88,0.00,,,0.00,Wunderground v.1.15,2013-08-17 01:28:00,
2013-08-16 20:33:00,73.1,69.3,30.01,NE,37,0.0,0.0,88,0.00,,,0.00,Wunderground v.1.15,2013-08-17 01:33:00,
2013-08-16 20:39:00,72.9,69.1,30.01,NE,37,0.0,0.0,88,0.00,,,0.00,Wunderground v.1.15,2013-08-17 01:39:00,
2013-08-16 20:44:00,72.8,69.0,30.01,NE,37,0.0,0.0,88,0.00,,,0.00,Wunderground v.1.15,2013-08-17 01:44:00,
2013-08-16 20:49:00,72.8,69.0,30.01,NE,37,0.0,0.0,88,0.00,,,0.00,Wunderground v.1.15,2013-08-17 01:49:00,
2013-08-16 20:54:00,72.7,69.3,30.02,NE,38,0.0,0.0,89,0.00,,,0.00,Wunderground v.1.15,2013-08-17 01:54:00,
2013-08-16 20:59:00,72.7,68.9,30.02,NE,38,0.0,0.0,88,0.00,,,0.00,Wunderground v.1.15,2013-08-17 01:59:00,
2013-08-16 21:04:00,72.6,68.8,30.03,NE,38,0.0,0.0,88,0.00,,,0.00,Wunderground v.1.15,2013-08-17 02:04:00,
2013-08-16 21:09:00,72.6,68.8,30.03,NE,38,0.0,0.0,88,0.00,,,0.00,Wunderground v.1.15,2013-08-17 02:09:00,
2013-08-16 21:14:00,72.6,68.8,30.03,NE,38,0.0,1.0,88,0.00,,,0.00,Wunderground v.1.15,2013-08-17 02:14:00,
2013-08-16 21:19:00,72.6,69.2,30.03,NE,38,0.0,1.0,89,0.00,,,0.00,Wunderground v.1.15,2013-08-17 02:19:00,
2013-08-16 21:24:00,72.5,68.7,30.03,NE,38,0.0,1.0,88,0.00,,,0.00,Wunderground v.1.15,2013-08-17 02:24:00,
2013-08-16 21:30:00,72.4,68.6,30.03,NE,38,0.0,0.0,88,0.00,,,0.00,Wunderground v.1.15,2013-08-17 02:30:00,
2013-08-16 21:35:00,72.4,68.6,30.03,NE,38,0.0,1.0,88,0.00,,,0.00,Wunderground v.1.15,2013-08-17 02:35:00,
2013-08-16 21:41:00,72.3,68.9,30.03,NE,38,0.0,0.0,89,0.00,,,0.00,Wunderground v.1.15,2013-08-17 02:41:00,
2013-08-16 21:46:00,72.2,68.4,30.03,NE,38,0.0,1.0,88,0.00,,,0.00,Wunderground v.1.15,2013-08-17 02:46:00,
2013-08-16 21:51:00,72.2,68.8,30.03,NE,38,0.0,0.0,89,0.00,,,0.00,Wunderground v.1.15,2013-08-17 02:51:00,
2013-08-16 21:56:00,72.1,68.7,30.03,NE,38,0.0,0.0,89,0.00,,,0.00,Wunderground v.1.15,2013-08-17 02:56:00,
2013-08-16 22:01:00,72.0,68.6,30.02,NE,38,0.0,0.0,89,0.00,,,0.00,Wunderground v.1.15,2013-08-17 03:01:00,
2013-08-16 22:06:00,71.9,68.5,30.03,NE,38,0.0,1.0,89,0.00,,,0.00,Wunderground v.1.15,2013-08-17 03:06:00,
2013-08-16 22:11:00,71.9,68.5,30.03,NE,38,0.0,0.0,89,0.00,,,0.00,Wunderground v.1.15,2013-08-17 03:11:00,
2013-08-16 22:16:00,71.8,68.4,30.03,NE,38,0.0,1.0,89,0.00,,,0.00,Wunderground v.1.15,2013-08-17 03:16:00,
2013-08-16 22:21:00,71.7,68.3,30.02,NE,38,0.0,0.0,89,0.00,,,0.00,Wunderground v.1.15,2013-08-17 03:21:00,
2013-08-16 22:26:00,71.7,68.3,30.02,NE,38,0.0,1.0,89,0.00,,,0.00,Wunderground v.1.15,2013-08-17 03:26:00,
2013-08-16 22:32:00,71.6,68.2,30.02,NE,38,0.0,1.0,89,0.00,,,0.00,Wunderground v.1.15,2013-08-17 03:32:00,
2013-08-16 22:37:00,71.5,68.4,30.02,NE,38,0.0,1.0,90,0.00,,,0.00,Wunderground v.1.15,2013-08-17 03:37:00,
2013-08-16 22:42:00,71.5,68.4,30.02,NE,38,0.0,0.0,90,0.00,,,0.00,Wunderground v.1.15,2013-08-17 03:42:00,
2013-08-16 22:47:00,71.4,68.3,30.03,NE,38,0.0,0.0,90,0.00,,,0.00,Wunderground v.1.15,2013-08-17 03:47:00,
2013-08-16 22:52:00,71.3,68.2,30.02,NE,38,0.0,0.0,90,0.00,,,0.00,Wunderground v.1.15,2013-08-17 03:52:00,
2013-08-16 22:57:00,71.3,68.2,30.02,NE,38,0.0,1.0,90,0.00,,,0.00,Wunderground v.1.15,2013-08-17 03:57:00,
2013-08-16 23:01:00,71.3,68.5,30.02,NE,38,0.0,0.0,91,0.00,,,0.00,Wunderground v.1.15,2013-08-17 04:01:00,
2013-08-16 23:06:00,71.2,68.4,30.02,NE,38,0.0,0.0,91,0.00,,,0.00,Wunderground v.1.15,2013-08-17 04:06:00,
2013-08-16 23:11:00,71.2,68.4,30.02,NE,38,0.0,0.0,91,0.00,,,0.00,Wunderground v.1.15,2013-08-17 04:11:00,
2013-08-16 23:17:00,71.1,68.3,30.02,NE,38,0.0,0.0,91,0.00,,,0.00,Wunderground v.1.15,2013-08-17 04:17:00,
2013-08-16 23:22:00,71.0,68.2,30.03,NE,38,0.0,0.0,91,0.00,,,0.00,Wunderground v.1.15,2013-08-17 04:22:00,
2013-08-16 23:27:00,71.0,68.2,30.03,NE,38,0.0,0.0,91,0.00,,,0.00,Wunderground v.1.15,2013-08-17 04:27:00,
2013-08-16 23:32:00,71.0,68.2,30.03,NE,38,0.0,0.0,91,0.00,,,0.00,Wunderground v.1.15,2013-08-17 04:32:00,
2013-08-16 23:37:00,71.0,68.2,30.03,NE,38,0.0,0.0,91,0.00,,,0.00,Wunderground v.1.15,2013-08-17 04:37:00,
2013-08-16 23:42:00,71.0,68.6,30.03,NE,38,0.0,0.0,92,0.00,,,0.00,Wunderground v.1.15,2013-08-17 04:42:00,
2013-08-16 23:47:00,70.9,68.5,30.03,NE,38,0.0,0.0,92,0.00,,,0.00,Wunderground v.1.15,2013-08-17 04:47:00,
2013-08-16 23:52:00,70.9,68.5,30.03,NE,38,0.0,1.0,92,0.00,,,0.00,Wunderground v.1.15,2013-08-17 04:52:00,
2013-08-16 23:58:00,70.9,68.5,30.03,NE,38,0.0,1.0,92,0.00,,,0.00,Wunderground v.1.15,2013-08-17 04:58:00,